Wilmington, OH

4:47 AM EDT on October 17, 2017 (GMT -0400)
Airborne

Weather History for KILN - December, 2012

Change the Weather History Date:

Thursday, December 20, 2012

  Actual Average (KFFO) Record (KFFO)
Temperature  
Mean Temperature 42 °F -  
Max Temperature 51 °F 35 °F 59 °F (2013)
Min Temperature 32 °F 20 °F 1 °F (2004)
Degree Days  
Heating Degree Days 23    
Moisture  
Dew Point 39 °F    
Average Humidity 85    
Maximum Humidity 100    
Minimum Humidity 70    
Precipitation  
Precipitation 0.92 in - - ()
Sea Level Pressure  
Sea Level Pressure 29.52 in    
Wind  
Wind Speed 19 mph (South)    
Max Wind Speed 36 mph    
Max Gust Speed 48 mph    
Visibility 7 miles    
Events Rain , Snow    
Averages and records for this station are not official NWS values.
T = Trace of Precipitation, MM = Missing Value Source: NWS Daily Summary

Daily Weather History Graph

Daily Weather History Graph

Search for Another Location

Airport or City:

Trip Planner

Search our weather history database for the weather conditions in past years. The results will help you decide how hot, cold, wet, or windy it might be!

Date:

Astronomy

Dec. 20, 2012 Rise Set
Actual Time 7:51 AM EST 5:14 PM EST
Civil Twilight 7:21 AM EST 5:44 PM EST
Nautical Twilight 6:47 AM EST 6:18 PM EST
Astronomical Twilight 6:14 AM EST 6:51 PM EST
Moon 12:30 PM EST (12/20) 12:39 AM EST (12/20)
Length of Visible Light 10h 23m
Length of Day
9h 23m
First Quarter, 55% of the Moon is Illuminated
Dec 20
First Quarter
Dec 28
Full
Jan 4
Last Quarter
Jan 11
New
Jan 18
First Quarter

Hourly Weather History & Observations

Time (EST) Temp. Windchill Dew Point Humidity Pressure Visibility Wind Dir Wind Speed Gust Speed Precip Events Conditions
12:54 AM 39.9 °F 32.5 °F 36.0 °F 86% 30.00 in 6.0 mi ESE 12.7 mph - N/A   Mostly Cloudy
1:54 AM 39.0 °F 31.0 °F 35.1 °F 86% 29.96 in 7.0 mi ESE 13.8 mph - N/A   Clear
2:54 AM 39.9 °F 32.9 °F 35.1 °F 83% 29.94 in 7.0 mi ESE 11.5 mph - N/A   Clear
3:54 AM 39.9 °F 32.1 °F 35.1 °F 83% 29.90 in 8.0 mi ESE 13.8 mph - N/A   Clear
4:54 AM 39.0 °F 30.6 °F 35.1 °F 86% 29.83 in 8.0 mi SE 15.0 mph - N/A   Clear
5:54 AM 41.0 °F 32.8 °F 36.0 °F 82% 29.75 in 10.0 mi ESE 16.1 mph - N/A   Clear
6:54 AM 42.1 °F 34.5 °F 37.0 °F 82% 29.70 in 10.0 mi SE 15.0 mph 24.2 mph N/A   Clear
7:54 AM 44.1 °F 37.4 °F 37.9 °F 79% 29.68 in 10.0 mi SE 13.8 mph - N/A   Overcast
8:54 AM 46.0 °F 38.8 °F 41.0 °F 83% 29.65 in 5.0 mi SSE 18.4 mph 24.2 mph 0.06 in Rain Rain
9:54 AM 46.0 °F 38.8 °F 43.0 °F 89% 29.63 in 3.0 mi SSE 18.4 mph 29.9 mph 0.12 in Rain Rain
10:07 AM 46.4 °F 38.7 °F 42.8 °F 87% 29.58 in 1.8 mi SSE 20.7 mph 31.1 mph 0.05 in Rain Heavy Rain
10:31 AM 46.4 °F 38.5 °F 44.6 °F 93% 29.55 in 3.0 mi SSE 21.9 mph 33.4 mph 0.17 in Rain Rain
10:54 AM 46.9 °F - 45.0 °F 93% 29.57 in 7.0 mi SSE 24.2 mph 34.5 mph 0.19 in Rain Light Rain
11:02 AM 46.4 °F 38.3 °F 44.6 °F 93% 29.52 in 8.0 mi SSE 23.0 mph 33.4 mph 0.01 in Rain Light Rain
11:13 AM 46.4 °F 38.7 °F 44.6 °F 93% 29.54 in 6.0 mi South 20.7 mph 33.4 mph 0.02 in Rain Light Rain
11:27 AM 46.4 °F 39.8 °F 44.6 °F 93% 29.55 in 2.0 mi South 16.1 mph 27.6 mph 0.07 in Rain Rain
11:54 AM 46.9 °F - 46.0 °F 97% 29.57 in 2.5 mi South 18.4 mph 25.3 mph 0.16 in Rain Rain
12:06 PM 46.4 °F 39.5 °F 46.4 °F 100% 29.51 in 3.0 mi South 17.3 mph 26.5 mph 0.04 in Rain Rain
12:54 PM 46.9 °F - 46.0 °F 97% 29.52 in 3.0 mi South 10.4 mph 20.7 mph 0.15 in Rain Rain
1:54 PM 48.9 °F - 46.9 °F 93% 29.43 in 6.0 mi SSE 17.3 mph 28.8 mph 0.09 in Rain Light Rain
2:25 PM 48.2 °F - 46.4 °F 93% 29.35 in 10.0 mi SSE 18.4 mph 26.5 mph 0.03 in Rain Light Rain
2:54 PM 50.0 °F - 46.9 °F 89% 29.37 in 7.0 mi South 23.0 mph 29.9 mph 0.03 in Rain Light Rain
3:01 PM 50.0 °F - 48.2 °F 94% 29.32 in 3.0 mi South 18.4 mph 29.9 mph 0.00 in Rain Light Rain
3:29 PM 51.8 °F - 46.4 °F 82% 29.32 in 10.0 mi South 25.3 mph 39.1 mph 0.00 in Rain Light Rain
3:54 PM 51.1 °F - 46.9 °F 86% 29.34 in 10.0 mi South 20.7 mph 31.1 mph 0.00 in   Overcast
4:54 PM 50.0 °F - 46.9 °F 89% 29.30 in 4.0 mi South 23.0 mph 32.2 mph 0.00 in Rain Rain
5:19 PM 48.2 °F - 46.4 °F 93% 29.27 in 2.5 mi SW 23.0 mph 36.8 mph 0.05 in Rain Heavy Rain
5:33 PM 48.2 °F - 44.6 °F 87% 29.28 in 5.0 mi SW 24.2 mph 36.8 mph 0.12 in Rain Light Rain
5:39 PM 48.2 °F - 42.8 °F 82% 29.29 in 10.0 mi WSW 28.8 mph 48.3 mph 0.12 in Rain Light Rain
5:46 PM 48.2 °F - 42.8 °F 82% 29.29 in 10.0 mi SW 35.7 mph 48.3 mph 0.12 in Rain Light Rain
5:54 PM 46.9 °F - 39.0 °F 74% 29.34 in 10.0 mi SW 33.4 mph 48.3 mph 0.12 in   Overcast
6:54 PM 41.0 °F 30.0 °F 33.1 °F 73% 29.40 in 10.0 mi SW 28.8 mph 38.0 mph N/A   Overcast
7:54 PM 37.9 °F 25.5 °F 30.0 °F 73% 29.43 in 10.0 mi SW 31.1 mph 43.7 mph 0.00 in   Overcast
9:54 PM 35.1 °F 20.8 °F 26.1 °F 70% 29.47 in 10.0 mi SW 35.7 mph 46.0 mph 0.00 in   Overcast
10:18 PM 33.8 °F 19.2 °F 26.6 °F 75% 29.41 in 10.0 mi SW 34.5 mph 44.9 mph 0.00 in   Overcast
10:39 PM 33.8 °F 20.5 °F 26.6 °F 75% 29.43 in 2.5 mi SW 27.6 mph 39.1 mph 0.00 in Snow Light Snow
10:50 PM 33.8 °F 21.0 °F 26.6 °F 75% 29.43 in 5.0 mi SW 25.3 mph 38.0 mph 0.00 in Snow Light Snow
10:54 PM 33.1 °F 18.9 °F 26.1 °F 75% 29.48 in 5.0 mi SW 31.1 mph 40.3 mph 0.00 in Snow Light Snow
11:01 PM 33.8 °F 20.5 °F 26.6 °F 75% 29.44 in 6.0 mi SW 27.6 mph 42.6 mph 0.00 in Snow Light Snow
11:54 PM 32.0 °F 18.1 °F 25.0 °F 75% 29.49 in 6.0 mi SW 27.6 mph 44.9 mph 0.00 in Snow Light Snow